User: anonymous   Login
Location: Владивосток
(43.1151°N, 131.8856°E)
Time: 19:48:00
(UTC+10:00)
Language:

SDS-4 - Orbit

View from above orbital plane
View from above orbital plane
View from above satellite
View from above satellite

Ground track
Ground track

The orbit data is extracted from the following two-line orbital elements,

1 38339U 12025C   24205.89852767  .00002540  00000-0  40302-3 0  9994
2 38339  98.1688 286.6319 0006959   4.2529 355.8736 14.73026010653807
Epoch (UTC): 23 July 2024 21:33:52
Eccentricity: 0.0006959
inclination: 98.1688°
perigee height: 646 km
apogee height: 656 km
right ascension of ascending node: 286.6319°
argument of perigee: 4.2529°
revolutions per day: 14.73026010
mean anomaly at epoch: 355.8736°
orbit number at epoch: 65380

The dashed part of the orbit path shows where the satellite is in the earth's shadow,  

DLR